Humidity-temperature Sensor

Selected Measurement Type: Relative Humidity

 
Relative Humidity [%]     6 entries per hour
Showing data from 4/11/2016 (00:00:00 Z) to 4/8/2016 (00:01:00 Z)
Previous Next [ Day | 3-Days | 7-Days ]
First Last
Prev [ Day | 3-Days | 7-Days ] Next
First Last

Start Time:     :
End Time:     :     
Time (in GMT) :00 :50 :40 :30 :20 :10
Previous Next [ Day | 3-Days | 7-Days ]
First Last
Prev [ Day | 3-Days | 7-Days ] Next
First Last


123 => good data
MM => data is determined as missing
-- => data not received/configured
Back to Top Back to Top
4/11/2016 00:00 to 23:10 76.67 74.97 76.26 76.24 77.07 76.77
4/10/2016 23:00 to 22:10 77.27 77.19 75.47 74.95 74.73 75.27
4/10/2016 22:00 to 21:10 75.33 76.06 76.56 76.85 77.37 77.05
4/10/2016 21:00 to 20:10 77.07 76.97 78.18 78.24 78.73 78.71
4/10/2016 20:00 to 19:10 79.58 80.08 80.63 81.29 82.10 81.13
4/10/2016 19:00 to 18:10 82.10 81.84 81.39 81.68 82.16 82.59
4/10/2016 18:00 to 17:10 82.57 82.77 82.77 83.48 83.11 82.57
4/10/2016 17:00 to 16:10 82.63 82.85 81.96 81.82 81.96 82.22
4/10/2016 16:00 to 15:10 82.57 82.79 81.70 82.61 83.11 83.05
4/10/2016 15:00 to 14:10 82.71 83.19 82.38 82.93 83.19 84.12
4/10/2016 14:00 to 13:10 83.84 84.95 85.68 86.06 86.45 86.45
4/10/2016 13:00 to 12:10 86.99 86.81 87.21 87.15 87.66 87.44
4/10/2016 12:00 to 11:10 88.14 88.18 89.38 88.49 87.38 86.93
4/10/2016 11:00 to 10:10 87.17 87.32 88.26 86.97 87.96 87.64
4/10/2016 10:00 to 9:10 89.09 24.41 88.69 85.88 85.15 86.79
4/10/2016 09:00 to 8:10 87.92 87.42 87.01 87.52 87.66 87.70
4/10/2016 08:00 to 7:10 87.29 87.25 87.07 86.61 86.00 85.13
4/10/2016 07:00 to 6:10 84.51 84.45 85.15 85.15 85.03 85.98
4/10/2016 06:00 to 5:10 87.54 86.41 85.62 87.86 87.62 85.78
4/10/2016 05:00 to 4:10 86.41 85.92 87.66 86.63 85.56 86.63
4/10/2016 04:00 to 3:10 86.89 86.65 86.47 86.35 86.43 86.14
4/10/2016 03:00 to 2:10 85.60 84.36 83.01 82.63 82.87 82.38
4/10/2016 02:00 to 1:10 82.14 81.72 80.48 81.19 80.73 81.76
4/10/2016 01:00 to 0:10 83.54 84.69 84.63 85.05 85.25 85.52
4/10/2016 00:00 to 23:10 83.94 82.12 82.91 82.61 82.34 82.61
4/9/2016 23:00 to 22:10 82.73 82.67 83.41 83.33 84.32 85.01
4/9/2016 22:00 to 21:10 84.55 83.58 83.48 83.78 82.89 82.59
4/9/2016 21:00 to 20:10 83.21 82.65 82.18 82.65 82.73 84.06
4/9/2016 20:00 to 19:10 84.16 84.47 84.41 84.77 84.06 83.50
4/9/2016 19:00 to 18:10 82.99 82.38 82.67 83.33 82.40 85.42
4/9/2016 18:00 to 17:10 85.86 85.31 84.77 84.43 84.32 84.81
4/9/2016 17:00 to 16:10 85.42 85.33 86.04 86.65 87.44 88.00
4/9/2016 16:00 to 15:10 88.04 87.84 87.42 87.07 86.00 87.17
4/9/2016 15:00 to 14:10 86.12 85.27 86.73 88.73 89.50 89.44
4/9/2016 14:00 to 13:10 90.20 87.90 87.23 86.37 86.04 86.06
4/9/2016 13:00 to 12:10 86.08 86.16 86.45 87.40 87.11 86.69
4/9/2016 12:00 to 11:10 86.02 84.49 83.01 83.01 82.91 81.50
4/9/2016 11:00 to 10:10 82.42 82.47 82.95 82.59 84.51 83.58
4/9/2016 10:00 to 9:10 84.12 84.34 84.38 85.38 79.51 83.27
4/9/2016 09:00 to 8:10 83.66 85.62 84.79 87.13 89.48 89.82
4/9/2016 08:00 to 7:10 90.29 89.15 88.59 87.94 86.95 85.13
4/9/2016 07:00 to 6:10 81.43 88.45 88.45 88.04 87.62 87.82
4/9/2016 06:00 to 5:10 87.32 88.08 87.84 87.60 87.36 87.72
4/9/2016 05:00 to 4:10 87.21 87.52 86.45 86.20 85.96 87.01
4/9/2016 04:00 to 3:10 91.84 92.27 92.43 91.96 90.69 89.82
4/9/2016 03:00 to 2:10 89.56 86.61 85.86 84.79 84.71 84.24
4/9/2016 02:00 to 1:10 84.63 84.24 84.00 84.87 85.35 84.53
4/9/2016 01:00 to 0:10 83.72 84.22 83.66 83.46 83.27 83.44
4/9/2016 00:00 to 23:10 83.80 83.39 83.29 83.19 82.79 83.48
4/8/2016 23:00 to 22:10 83.54 83.11 83.70 83.17 82.83 82.79
4/8/2016 22:00 to 21:10 81.92 81.60 81.72 81.45 82.47 83.19
4/8/2016 21:00 to 20:10 82.34 82.28 82.77 83.19 83.17 83.41
4/8/2016 20:00 to 19:10 81.88 81.80 81.45 82.38 82.36 83.27
4/8/2016 19:00 to 18:10 83.33 82.67 83.27 83.86 84.67 85.05
4/8/2016 18:00 to 17:10 84.43 84.63 84.69 84.26 84.24 84.59
4/8/2016 17:00 to 16:10 83.66 83.01 82.49 84.65 84.65 85.17
4/8/2016 16:00 to 15:10 85.38 85.48 85.31 84.83 84.24 83.52
4/8/2016 15:00 to 14:10 83.52 83.13 84.22 84.34 85.11 84.89
4/8/2016 14:00 to 13:10 86.32 86.26 85.96 86.10 85.98 87.29
4/8/2016 13:00 to 12:10 87.19 87.60 86.37 85.48 86.20 87.09
4/8/2016 12:00 to 11:10 87.17 86.97 87.56 88.00 88.87 89.19
4/8/2016 11:00 to 10:10 89.30 88.95 88.97 88.79 87.98 86.00
4/8/2016 10:00 to 9:10 84.69 88.87 89.86 88.53 87.78 86.28
4/8/2016 09:00 to 8:10 85.78 87.03 88.45 89.46 88.55 88.51
4/8/2016 08:00 to 7:10 88.33 88.69 88.12 88.43 88.08 88.06
4/8/2016 07:00 to 6:10 87.64 87.44 87.94 88.29 87.38 88.47
4/8/2016 06:00 to 5:10 88.51 87.01 86.79 87.62 85.01 86.00
4/8/2016 05:00 to 4:10 85.07 85.27 84.97 85.03 83.64 87.34
4/8/2016 04:00 to 3:10 86.71 87.52 87.52 86.91 87.05 86.79
4/8/2016 03:00 to 2:10 86.91 86.89 86.69 87.42 87.60 86.37
4/8/2016 02:00 to 1:10 85.31 86.53 87.56 86.14 88.06 88.51
4/8/2016 01:00 to 0:10 88.24 88.59 88.53 88.20 87.98 86.41